Change the Weather History Date:

Sunday, July 13, 2014

  Actual Average Record
Temperature  
Mean Temperature 66 °F 63 °F  
Max Temperature 77 °F 73 °F 88 °F (2009)
Min Temperature 55 °F 53 °F 48 °F (2009)
Degree Days  
Heating Degree Days 0    
Month to date heating degree days 15  
Since 1 June heating degree days 108  
Since 1 July heating degree days 15  
Cooling Degree Days 1    
Month to date cooling degree days 4  
Year to date cooling degree days 61  
Since 1 June cooling degree days 17  
Growing Degree Days 15 (Base 50)    
Moisture  
Dew Point 54 °F    
Average Humidity 72    
Maximum Humidity 93    
Minimum Humidity 50    
Precipitation  
Precipitation 0.00 in - 0.01 in (1956)
Month to date precipitation 0.05  
Year to date precipitation 8.23  
Since 1 July precipitation 0.05  
Sea Level Pressure  
Sea Level Pressure 30.00 in    
Wind  
Wind Speed 4 mph (SSW)    
Max Wind Speed 13 mph    
Max Gust Speed 16 mph    
Visibility 6 miles    
Events Fog    
T = Trace of Precipitation, MM = Missing Value Source: NWS Daily Summary

Daily Weather History Graph

Daily Weather History Graph

Search for Another Location

Airport or City:

Trip Planner

Search our weather history database for the weather conditions in past years. The results will help you decide how hot, cold, wet, or windy it might be!

Date:

Astronomy

Jul. 13, 2014 Rise Set
Actual Time 5:58 AM PDT 8:27 PM PDT
Civil Twilight 5:28 AM PDT 8:57 PM PDT
Nautical Twilight 4:50 AM PDT 9:34 PM PDT
Astronomical Twilight 4:09 AM PDT 10:15 PM PDT
Moon 9:23 PM PDT (7/13) 7:31 AM PDT (7/13)
Length of Visible Light 15h 29m
Length of Day
14h 29m
Full, 97% of the Moon is Illuminated
Jul 13
Full
Jul 18
Last Quarter
Jul 26
New
Aug 3
First Quarter
Aug 10
Full

Hourly Weather History & Observations

Time (PDT) Temp. Dew Point Humidity Pressure Visibility Wind Dir Wind Speed Gust Speed Precip Events Conditions
12:53 AM 57.9 °F 53.1 °F 84% 30.04 in 10.0 mi Calm Calm - N/A   Clear
1:53 AM 57.0 °F 52.0 °F 83% 30.04 in 10.0 mi Calm Calm - N/A   Clear
2:53 AM 55.0 °F 52.0 °F 89% 30.04 in 10.0 mi Calm Calm - N/A   Clear
3:17 AM 55.0 °F 52.0 °F 89% 30.03 in 2.0 mi WNW 3.5 mph - N/A   Partly Cloudy
3:21 AM 55.0 °F 52.0 °F 89% 30.03 in 1.2 mi West 3.5 mph - N/A   Scattered Clouds
3:23 AM 55.0 °F 52.0 °F 89% 30.03 in 0.8 mi West 3.5 mph - N/A   Mist
3:35 AM 55.0 °F 53.1 °F 93% 30.03 in 0.2 mi West 3.5 mph - N/A Fog Fog
3:53 AM 55.9 °F 54.0 °F 93% 30.03 in 0.2 mi Calm Calm - N/A Fog Fog
4:24 AM 57.0 °F 54.0 °F 89% 30.03 in 0.5 mi Calm Calm - N/A Fog Fog
4:53 AM 55.9 °F 54.0 °F 93% 30.02 in 0.5 mi Calm Calm - N/A Fog Fog
5:10 AM 55.9 °F 54.0 °F 93% 30.03 in 1.5 mi Calm Calm - N/A   Overcast
5:43 AM 55.9 °F 54.0 °F 93% 30.02 in 0.8 mi Calm Calm - N/A   Overcast
5:53 AM 55.9 °F 54.0 °F 93% 30.02 in 0.5 mi Calm Calm - N/A Fog Fog
6:23 AM 55.9 °F 54.0 °F 93% 30.02 in 0.2 mi Calm Calm - N/A Fog Fog
6:35 AM 57.0 °F 54.0 °F 89% 30.03 in 0.5 mi Calm Calm - N/A Fog Fog
6:53 AM 57.0 °F 54.0 °F 89% 30.03 in 0.8 mi Calm Calm - N/A   Overcast
7:05 AM 57.0 °F 55.0 °F 93% 30.02 in 1.5 mi Variable 3.5 mph - N/A   Overcast
7:11 AM 57.0 °F 54.0 °F 89% 30.03 in 3.0 mi Calm Calm - N/A   Overcast
7:24 AM 57.0 °F 54.0 °F 89% 30.03 in 2.5 mi Calm Calm - N/A   Overcast
7:40 AM 57.0 °F 54.0 °F 89% 30.03 in 3.0 mi North - - N/A   Overcast
7:50 AM 57.2 °F 53.6 °F 88% 30.04 in 2.0 mi North - - N/A   Overcast
7:53 AM 57.0 °F 54.0 °F 89% 30.04 in 2.5 mi North - - N/A   Overcast
8:00 AM 57.0 °F 54.0 °F 89% 30.04 in 3.0 mi Calm Calm - N/A   Overcast
8:53 AM 59.0 °F 55.0 °F 87% 30.04 in 6.0 mi Variable 4.6 mph - N/A   Overcast
9:41 AM 63.0 °F 55.0 °F 75% 30.03 in 10.0 mi Variable 3.5 mph - N/A   Overcast
9:53 AM 64.9 °F 55.9 °F 73% 30.03 in 10.0 mi Variable 3.5 mph - N/A   Mostly Cloudy
10:53 AM 72.0 °F 55.9 °F 57% 30.01 in 10.0 mi SW 3.5 mph - N/A   Clear
11:53 AM 73.0 °F 55.9 °F 55% 30.00 in 10.0 mi South 11.5 mph - N/A   Clear
12:53 PM 73.0 °F 55.9 °F 55% 29.98 in 10.0 mi South 6.9 mph - N/A   Clear
1:53 PM 75.0 °F 55.9 °F 51% 29.96 in 10.0 mi South 8.1 mph - N/A   Clear
2:53 PM 75.9 °F 55.0 °F 48% 29.95 in 10.0 mi SSE 9.2 mph - N/A   Clear
4:53 PM 75.9 °F 55.0 °F 48% 29.92 in 10.0 mi SSE 9.2 mph - N/A   Clear
5:53 PM 72.0 °F 55.0 °F 55% 29.92 in 10.0 mi SSE 6.9 mph - N/A   Clear
6:53 PM 71.1 °F 55.9 °F 59% 29.90 in 10.0 mi SSE 6.9 mph - N/A   Clear
7:53 PM 66.9 °F 55.0 °F 66% 29.90 in 10.0 mi South 6.9 mph - N/A   Clear
8:53 PM 63.0 °F 55.0 °F 75% 29.90 in 10.0 mi Calm Calm - N/A   Clear
9:53 PM 63.0 °F 55.0 °F 75% 29.91 in 10.0 mi Calm Calm - N/A   Clear
10:53 PM 61.0 °F 54.0 °F 78% 29.91 in 10.0 mi SW 3.5 mph - N/A   Clear
11:53 PM 63.0 °F 55.0 °F 75% 29.90 in 10.0 mi Calm Calm - N/A   Clear